User: anonymous   Login
Location: Knowlton
(51.2333°N, 1.2667°E)
Time: 15:53:22
(UTC+00:00)
Language:

FO-99 - Orbit

View from above orbital plane
View from above orbital plane
View from above satellite
View from above satellite

Ground track
Ground track

The orbit data is extracted from the following two-line orbital elements,

1 43937U 19003F   21331.84123466  .00003386  00000-0  13034-3 0  9997
2 43937  97.1580   8.3962 0023467 148.8374 211.4262 15.26779384159187
Epoch (UTC): 27 November 2021 20:11:22
Eccentricity: 0.0023467
inclination: 97.1580°
perigee height: 469 km
apogee height: 501 km
right ascension of ascending node: 8.3962°
argument of perigee: 148.8374°
revolutions per day: 15.26779384
mean anomaly at epoch: 211.4262°
orbit number at epoch: 15918

The dashed part of the orbit path shows where the satellite is in the earth's shadow,  

DLR